Theta_e
315 324 346 347 348 349 349 348 348 348 349 348 347 347 346 345 344 343 344 344 343 343 343 342 342 343 345 347 351 354 355 352 351 353 352 353 353 353 352 352 351 348 354
326 336 340 346 345 346 347 347 347 347 347 347 348 348 348 347 346 345 345 345 345 345 345 343 343 343 343 347 349 352 353 352 349 349 349 348 349 352 351 351 350 348 353
310 318 323 337 340 340 341 342 346 346 346 347 347 347 348 348 348 348 347 347 345 344 345 344 343 343 346 346 348 349 353 352 349 347 344 344 345 352 351 351 351 353 353
308 315 322 331 334 335 338 340 340 341 343 345 346 346 347 347 347 348 347 348 346 345 345 345 344 342 345 346 347 348 351 351 348 346 345 344 345 351 352 351 351 351 353
303 306 318 328 329 330 332 333 335 337 339 341 343 344 345 346 346 346 345 346 347 346 345 344 344 344 345 345 346 347 349 350 347 344 343 343 342 348 353 351 351 350 348
299 301 311 318 321 321 324 327 330 332 333 334 336 338 340 342 343 343 343 344 344 345 345 345 343 347 346 346 345 346 347 349 346 342 341 342 342 348 352 353 351 348 346
296 299 302 312 314 315 317 318 319 322 325 329 331 332 332 333 337 340 341 342 342 343 344 345 344 345 347 347 346 345 345 345 343 340 339 339 341 348 352 352 351 350 349
295 298 299 306 309 310 312 313 314 316 319 320 321 321 324 329 332 334 335 338 340 341 341 343 345 344 346 345 346 345 342 340 339 339 339 337 342 347 351 352 351 350 350
294 295 296 297 301 305 307 308 310 311 313 315 314 315 318 320 323 327 329 332 336 338 340 341 342 342 343 344 344 343 339 337 339 339 339 337 339 348 350 351 350 350 350
293 293 294 294 296 297 297 304 305 306 308 310 310 310 310 311 314 320 323 326 330 332 336 339 340 340 341 341 341 339 336 334 337 338 337 337 340 346 350 351 349 350 350
293 292 292 293 294 295 295 298 300 303 304 306 305 306 304 303 308 313 315 316 323 328 331 333 336 338 337 335 336 335 333 337 336 337 337 335 340 346 348 350 350 350 350
289 290 291 291 291 292 295 294 294 296 296 300 301 301 300 301 306 305 306 310 311 314 322 330 331 332 331 331 331 332 334 335 336 336 336 335 340 345 346 350 348 350 349
286 288 289 289 290 290 291 292 291 292 293 296 296 300 299 299 302 301 301 303 303 305 306 314 325 325 326 328 329 330 331 333 336 336 335 333 339 344 346 349 349 349 349
286 287 288 287 289 289 289 289 289 290 292 291 293 296 297 296 297 298 298 299 300 300 302 311 315 322 324 326 328 328 330 332 334 335 334 329 336 343 346 349 349 349 349
285 285 286 286 287 288 288 287 288 288 289 290 291 292 294 293 294 294 294 297 298 298 305 305 304 306 308 323 326 327 328 330 332 333 334 324 330 339 344 348 349 349 349
285 285 286 287 287 288 287 287 287 288 288 289 289 290 293 293 292 291 291 294 297 298 303 302 300 301 303 308 323 326 327 329 329 331 332 332 326 332 339 345 348 349 350
284 285 286 288 288 287 287 287 287 288 288 288 289 290 290 290 290 289 290 293 296 297 299 299 298 299 301 303 306 324 325 327 328 329 329 331 329 324 331 340 345 347 348
283 284 285 288 287 286 286 286 287 287 287 286 286 287 287 287 287 288 289 291 295 296 297 297 296 297 297 299 300 305 324 325 325 326 327 329 331 329 327 331 337 342 345
283 284 284 285 285 286 286 286 285 284 284 284 284 284 284 285 286 285 286 288 291 293 296 295 295 296 295 297 298 300 304 323 324 325 325 327 329 329 329 328 327 330 339
282 283 284 285 285 285 285 284 283 283 283 283 282 283 283 283 283 283 283 283 285 288 291 294 295 296 295 296 299 300 301 305 323 323 323 325 327 326 328 329 328 327 329
282 283 283 283 284 283 282 281 281 280 280 280 281 282 282 282 282 281 281 281 282 282 286 291 294 294 294 295 296 296 300 300 320 322 323 323 324 325 326 328 329 330 330
281 282 282 283 283 283 282 281 281 279 279 280 281 281 281 281 281 280 280 279 280 281 284 288 291 292 294 294 293 295 292 299 313 320 321 321 322 324 324 325 326 328 331
280 281 283 283 283 282 282 281 280 280 279 277 278 279 280 280 280 280 279 279 280 280 283 284 287 292 290 292 294 294 291 295 296 314 317 318 319 318 321 323 325 326 329
281 281 282 282 283 283 282 280 277 276 276 277 277 278 278 279 279 279 279 279 279 281 279 282 287 290 291 289 291 295 297 296 291 292 310 315 315 315 316 319 324 326 327
282 280 280 281 282 282 281 279 277 276 277 277 277 276 277 278 278 278 278 279 277 277 278 280 283 285 291 290 290 291 294 296 296 294 291 300 313 315 316 316 321 324 325
281 280 280 280 280 281 280 278 277 275 276 275 275 275 276 277 277 277 278 277 276 276 277 279 281 283 284 289 292 292 291 290 292 293 293 293 308 312 315 316 319 321 324
Wind_Speed
9 12 12 11 10 10 9 7 5 4 4 3 3 4 5 4 3 4 6 6 7 9 10 9 8 8 9 9 12 12 8 8 7 5 4 4 5 7 9 9 9 6 11
11 14 20 18 18 16 16 12 7 6 7 8 7 6 7 8 8 6 5 6 8 9 11 11 11 11 9 9 10 11 10 7 8 6 5 5 6 6 9 9 9 8 12
13 14 14 19 19 20 20 18 17 13 10 10 11 11 9 10 11 11 10 5 8 10 11 12 12 13 11 9 10 11 11 8 8 8 7 4 3 7 9 9 9 11 14
9 11 13 19 20 20 20 20 20 19 18 16 15 13 14 13 13 14 15 9 9 12 13 13 14 13 12 11 11 11 11 10 10 7 4 4 4 9 11 10 11 11 12
9 10 13 20 22 23 23 22 21 21 21 21 20 18 18 17 15 15 16 15 14 14 15 14 15 15 13 12 11 12 10 10 10 7 6 5 5 8 13 11 12 11 10
9 10 16 23 23 24 24 23 23 22 21 21 21 21 22 20 19 18 17 17 16 17 17 17 16 14 13 13 13 13 11 11 9 6 5 6 6 10 13 13 11 12 10
8 9 11 23 23 24 25 25 24 24 23 22 22 21 21 20 19 19 20 19 18 18 20 19 17 16 14 14 13 14 13 10 7 6 6 6 6 12 15 15 14 14 15
6 7 9 18 23 24 26 25 25 25 24 24 24 25 24 23 21 20 19 20 20 20 19 21 18 17 16 15 14 14 12 11 7 6 7 6 9 15 17 16 14 15 17
6 7 7 8 12 16 21 24 24 24 24 24 24 25 25 24 24 23 23 20 20 23 20 20 19 19 18 17 15 13 12 11 9 7 7 6 10 19 19 18 17 17 17
7 7 9 9 9 9 7 21 21 22 22 22 23 24 22 22 23 22 22 23 24 21 23 21 20 20 20 20 18 13 12 13 10 8 6 7 14 20 22 20 18 19 20
7 7 7 9 11 10 10 12 15 16 18 19 18 21 16 10 12 15 20 26 26 26 23 22 23 22 19 19 18 14 13 6 7 8 7 13 18 24 21 20 20 20 20
6 7 7 7 8 9 9 9 9 9 6 6 8 9 9 11 10 14 14 21 24 25 26 22 21 19 15 9 7 11 7 8 8 9 8 15 21 25 23 23 22 22 23
3 4 7 6 7 7 6 6 4 4 4 5 7 7 8 8 8 7 7 7 9 16 11 15 13 8 10 9 8 8 9 9 8 9 11 17 22 26 24 25 24 25 24
5 5 7 8 7 7 4 4 4 4 5 5 7 7 4 6 8 8 7 9 6 7 12 10 9 14 11 12 12 13 12 10 8 8 11 17 22 26 26 26 27 27 28
4 4 6 6 6 5 5 4 4 5 4 6 7 9 7 8 7 8 9 8 7 7 8 10 11 12 14 16 13 14 14 14 13 9 9 17 21 26 27 28 29 29 29
4 4 3 5 6 6 5 6 4 4 5 4 4 5 8 8 8 10 10 9 8 7 8 7 9 11 12 14 17 14 17 14 14 14 11 11 21 25 27 30 30 31 31
3 2 4 4 4 5 6 5 4 4 5 4 6 8 9 10 11 13 11 9 9 8 12 8 9 10 11 12 16 17 13 16 14 16 14 13 11 20 21 30 30 30 32
5 3 1 2 2 3 3 3 4 4 4 4 5 6 8 11 12 10 10 10 9 9 10 8 9 9 10 11 12 15 13 14 17 17 14 14 12 10 18 23 32 32 32
5 3 1 2 1 3 3 3 4 4 3 3 4 6 11 13 14 12 11 10 13 11 9 9 11 9 10 11 12 13 15 14 15 14 17 17 16 12 11 21 21 29 32
5 3 2 3 2 2 1 3 3 3 4 4 5 6 9 9 12 11 11 14 14 12 11 10 11 9 10 10 12 13 14 16 15 15 16 14 16 15 14 15 13 15 29
4 3 3 3 3 1 2 3 4 5 6 4 4 6 9 9 10 12 10 11 11 12 14 15 13 13 11 6 10 13 11 12 20 15 14 15 17 17 15 14 9 12 13
4 5 3 3 3 3 1 0 1 2 3 4 3 4 6 8 10 11 13 12 12 12 15 14 15 13 12 5 7 9 9 10 13 16 15 15 18 14 15 16 15 16 16
5 6 3 3 4 4 2 1 2 4 3 3 5 6 6 10 9 11 14 13 13 13 12 14 15 16 12 8 7 7 5 5 9 4 16 15 15 11 12 14 17 19 18
7 6 5 4 5 4 4 3 3 3 6 6 8 8 9 10 11 11 14 14 13 11 15 15 13 16 13 13 7 8 14 11 5 9 3 11 12 12 11 8 16 20 19
7 6 4 4 6 5 5 4 4 5 7 7 8 12 12 10 10 12 14 13 13 11 14 17 18 16 15 13 11 8 10 11 12 9 15 14 10 12 10 10 10 11 17
5 4 4 4 5 6 5 6 6 7 9 10 11 11 10 10 10 12 14 12 14 14 15 15 16 18 15 17 13 10 9 9 9 12 11 18 15 12 11 8 11 9 11
Wind_Direction
330 318 353 359 357 351 341 325 306 293 294 286 279 292 293 283 277 294 306 307 309 310 308 306 300 298 298 299 305 304 266 264 229 229 227 193 179 193 173 156 158 154 168
334 5 1 13 19 16 9 348 313 300 302 298 288 277 281 291 292 282 275 283 297 301 302 301 300 294 287 296 301 317 281 256 232 220 205 209 175 181 174 159 169 168 162
5 9 7 15 21 21 19 10 7 349 326 309 301 294 288 285 287 289 282 277 295 295 294 292 291 291 289 286 290 294 292 235 226 219 214 213 188 183 180 168 182 178 165
347 12 16 30 32 27 24 21 20 15 8 350 326 313 305 297 290 291 297 300 285 293 295 293 290 286 286 285 288 286 297 233 225 220 206 207 205 206 186 176 176 181 170
11 17 23 34 41 35 32 30 27 22 14 9 359 345 324 310 302 298 298 302 298 292 293 292 288 287 282 281 278 284 290 245 227 208 195 210 201 208 198 190 174 178 179
24 16 27 39 39 38 35 31 27 25 21 17 9 4 358 345 327 312 304 300 295 293 292 289 286 284 281 275 276 278 278 260 223 213 206 207 207 210 207 186 180 171 178
13 16 27 35 35 35 31 29 27 25 21 17 14 9 2 355 350 341 321 306 298 291 289 288 286 281 282 285 270 274 273 255 231 205 212 211 198 219 205 191 190 182 175
28 9 22 27 28 28 28 24 23 21 20 18 16 9 1 357 354 350 343 331 308 295 289 287 287 280 282 275 272 270 269 252 236 213 213 207 205 213 214 196 193 186 181
27 36 26 27 23 24 27 23 20 19 17 17 16 10 4 0 355 351 344 342 331 314 289 283 282 282 279 272 267 262 258 252 238 221 211 217 210 210 214 205 195 187 184
27 28 26 23 21 13 15 17 17 17 16 14 11 7 4 360 352 350 348 340 333 326 315 293 278 274 277 273 261 253 250 247 242 229 216 210 210 220 213 206 199 192 186
27 29 18 17 14 8 10 4 3 3 7 8 6 3 1 355 346 353 346 343 340 334 323 313 300 286 271 268 262 248 247 243 231 231 228 214 212 216 222 212 200 192 187
25 13 20 14 10 3 359 357 348 347 345 350 357 356 356 350 342 348 343 341 342 336 330 318 310 300 289 273 261 246 247 238 226 229 224 220 216 220 222 211 202 193 187
42 33 15 15 8 7 355 347 341 338 329 337 343 351 349 347 339 343 334 336 341 333 331 325 313 299 288 274 253 249 243 233 235 229 226 219 219 223 220 206 203 194 189
66 40 14 13 7 349 342 325 317 334 338 338 340 337 346 342 341 335 331 324 326 328 315 321 325 316 282 275 261 253 242 234 228 237 226 219 218 222 219 206 201 195 191
68 47 17 16 12 345 340 330 335 338 335 331 335 333 342 341 335 330 322 319 313 318 307 325 321 315 315 296 264 256 248 238 233 231 232 214 214 221 216 212 205 197 191
71 55 1 15 22 351 343 346 334 325 314 316 327 323 335 334 332 327 319 309 301 303 305 305 312 312 307 306 288 255 255 242 236 231 232 230 213 218 219 214 211 203 193
118 79 13 22 28 354 331 324 323 304 328 347 358 346 344 339 330 326 317 311 303 301 304 297 303 305 303 306 305 269 251 247 233 228 230 228 217 215 222 214 213 208 200
119 98 337 333 338 327 316 308 301 329 338 348 349 347 341 337 328 322 319 309 300 296 298 295 302 297 300 305 301 314 249 240 239 228 225 225 221 213 214 228 215 211 204
140 119 330 283 271 299 309 310 293 335 331 353 347 343 340 340 333 338 325 321 318 306 288 291 289 289 294 298 297 294 301 245 236 225 220 224 216 211 211 216 226 215 209
137 157 268 286 281 288 288 286 291 354 348 353 341 331 329 327 330 326 322 318 315 309 301 288 277 273 278 288 294 290 280 293 231 229 218 218 216 208 206 208 212 221 213
150 183 266 283 271 262 249 324 3 352 326 328 303 313 325 317 323 318 304 303 307 297 294 300 286 283 277 286 297 298 276 302 256 224 218 217 214 209 206 206 204 212 212
181 208 261 306 318 303 266 299 249 280 266 269 275 292 290 302 302 306 310 306 302 299 291 291 283 275 266 251 270 290 287 290 264 225 214 214 216 209 205 208 206 214 209
206 212 251 292 279 275 290 308 278 275 281 288 306 297 294 298 297 306 300 294 296 299 293 290 294 274 270 262 245 257 287 261 339 205 223 215 209 204 208 212 212 214 211
214 205 225 270 293 291 337 321 308 295 309 306 301 300 299 308 305 304 295 292 291 297 297 290 285 286 258 266 254 236 249 255 267 288 298 221 196 197 197 203 216 216 212
202 210 220 279 304 304 300 290 292 294 297 302 298 299 310 312 299 297 290 289 299 293 289 288 286 280 269 257 254 241 253 250 241 250 271 290 205 195 201 192 207 203 203
219 228 228 279 295 296 296 295 278 273 292 299 302 307 306 300 300 296 285 287 297 289 285 280 286 283 275 280 249 237 234 247 256 231 249 258 254 200 188 184 202 203 202